"Pseudo-MPEC" for P10SthZ

Created 2019 Oct 10 11:07:31 UT using Find_Orb

Click here for an explanation of pseudo-MPECs

 
 Astrometry: 
     P10SthZ  C2019 10 05C*pv:m#YVg!?:KCND`-`*.IIdAstrometry/ok#gh-]?*[Yckd:iF51
     P10SthZ  C2019 10 05-BhGONR7Q!!:JG=7i%O.[Yj:w5:o._-P'/%/a=:brTf?rX/w-q2@F51
     P10SthZ  C2019 10 05;qQtgQ(8X-G7p..0J'd76oredacted;cgV[yPv%HMy5X[;K9L+r5F51
     P10SthZ  C2019 10 05m\_NFPO7yl$/MX`$].+7wr8ifn;qf*jmtB9Nh]vwt3+%J(CCtfchF51
     P10SthZ KC2019 10 07.29663 04 14 00.08 +11 15 10.5    ~A817 22.5 RoNEOCP291
     P10SthZ KC2019 10 07.30506 04 14 00.37 +11 14 50.8    ~A817 22.1 RoNEOCP291
     P10SthZ KC2019 10 07.31347 04 14 00.67 +11 14 31.2    ~A817       oNEOCP291
     P10SthZ ^C2019 10 09\4.fR00E3+AL30DpLtn.S%26#/0iry%,al_r*+aL1t6VEb*mb8FA695
     P10SthZ ^C2019 10 09K6D4Gh-mma_R37r#=*RS:woDj1]jRb'QP(s]\fQw]1Bt)ykg+D'(695
     P10SthZ ^C2019 10 099LL$cqW%RbUZ[mp!xm'[$#0bW!ObFWE9]qrFB)%tkZ.'$'%Lca*@695
     P10SthZ  C2019 10 09KlQLv:LS9@jd86-Aclicko[f)jl1HMhere6tjQ%1KOG0UTIuD4g4F51
     P10SthZ  C2019 10 09u.]Vtg@x#n4w^fVIB\fK)v'8V6hD%c,bs[Ot!MQINb\_1$AQP$(1F51
     P10SthZ  C2019 10 09p(A-p?2YLN,a$Z+1fG:N]y9btklxsWIUxVKB^Dpj+N%GZ6g[P;?OF51
     P10SthZ  C2019 10 09/'#MVM*%(\[-TWERMi]Vn_6+K5vj?+KB+xx2\#ns8UMowC=S8VCwF51
     P10SthZ ^C2019 10 10]n2Y_Q0N#cL5y*]rB88li5wB'T?$k3k$LvB]JEQ4y[qL#cLoU,8j695
     P10SthZ ^C2019 10 10)4L7S*\gu`9L\PP'P';*forfV@O\i*h(OK!cp_E75`*aB[7Jes?I695
     P10SthZ ^C2019 10 105`Y/5;St][#/QXr!=qlRWwm2_$QXexplanationw!G]ZWsP0G3EJ695

Station data:
(291) LPL/Spacewatch II  (N31.961669 W111.599905)  US/Arizona.  Observers J.
   V. Scotti, R. S. McMillan. 1.8-m f/2.7 reflector + CCD.
(695) Kitt Peak  (N31.958398 W111.594670)  US/Arizona.
(F51) Pan-STARRS 1, Haleakala  (N20.707235 W156.255910)  US/Hawaii.
   Observers N. Primak, A. Schultz, S. Watters, J. Thiel, T. Goggia. Measurer
   PS1 Science Consortium. 1.8-m Ritchey-Chrétien + CCD.

Orbital elements:  P10SthZ
   Perihelion 2019 Aug 14.242034 +/- 0.0607 TT =  5:48:31 (JD 2458709.742034)
Epoch 2019 Oct 10.0 TT = JDT 2458766.5   Earth MOID: 0.2761   AutoNEOCP
M  23.59599683 +/- 0.15             (J2000 ecliptic)
n   0.41573013 +/- 0.00229          Peri.  149.53949 +/- 0.06
a   1.77798616 +/- 0.00653          Node   197.80162 +/- 0.058
e   0.2946635 +/- 0.00198           Incl.   17.52544 +/- 0.06
P   2.37/865.93d           H 22.2   G  0.15   U  8.7  
q 1.25407844 +/- 0.00127    Q 2.30189389 +/- 0.0119
From 17 observations 2019 Oct. 5-10; mean residual 0".17
Residuals in arcseconds: 
191005 F51  .04+  .09+    191007 291  .29+  .30+    191009 F51  .01+  .28-    
191005 F51  .07-  .04-    191009 695  .04+  .06-    191009 F51  .09+  .08-    
191005 F51  .17+  .06-    191009 695  .02-  .05-    191010 695  .04+  .28+    
191005 F51  .08-  .17-    191009 695  .07-  .27+    191010 695  .21-  .25+    
191007 291  .34-  .01-    191009 F51  .07+  .26-    191010 695  .16-  .06-    
191007 291  .13-  .12+    191009 F51  .32+  .23-    

Ephemerides (geocentric):
Date (UTC) HH   RA              Dec         delta   r     elong  mag " sig PA
---- -- -- --  -------------   -----------  ------ ------ -----  --- ---- ---
2019 10 10 11  04 15 36.281   +09 09 33.42  .44671 1.3385 131.8 22.5 .161  86
2019 10 10 12  04 15 37.292   +09 07 53.33  .44668 1.3386 131.8 22.5 .171  85
2019 10 10 13  04 15 38.296   +09 06 13.24  .44665 1.3387 131.9 22.5 .181  84
2019 10 10 14  04 15 39.294   +09 04 33.13  .44662 1.3388 131.9 22.5 .191  84
2019 10 10 15  04 15 40.284   +09 02 53.00  .44658 1.3389 131.9 22.5 .201  84
2019 10 10 16  04 15 41.267   +09 01 12.87  .44655 1.3390 132.0 22.5 .212  83
2019 10 10 17  04 15 42.243   +08 59 32.72  .44652 1.3392 132.0 22.5 .222  83
2019 10 10 18  04 15 43.213   +08 57 52.56  .44649 1.3393 132.0 22.5 .233  83
2019 10 10 19  04 15 44.175   +08 56 12.39  .44647 1.3394 132.1 22.5 .244  82
2019 10 10 20  04 15 45.130   +08 54 32.21  .44644 1.3395 132.1 22.5 .255  82
2019 10 10 21  04 15 46.079   +08 52 52.02  .44641 1.3396 132.1 22.5 .266  82
2019 10 10 22  04 15 47.021   +08 51 11.82  .44638 1.3397 132.2 22.5 .278  81
2019 10 10 23  04 15 47.955   +08 49 31.60  .44635 1.3399 132.2 22.5 .290  81
2019 10 11 00  04 15 48.883   +08 47 51.38  .44632 1.3400 132.3 22.5 .301  81
2019 10 11 01  04 15 49.804   +08 46 11.14  .44629 1.3401 132.3 22.5 .313  81
2019 10 11 02  04 15 50.718   +08 44 30.89  .44626 1.3402 132.3 22.5 .325  81
2019 10 11 03  04 15 51.625   +08 42 50.64  .44624 1.3403 132.4 22.5 .338  80
2019 10 11 04  04 15 52.525   +08 41 10.37  .44621 1.3404 132.4 22.5 .350  80
2019 10 11 05  04 15 53.419   +08 39 30.09  .44618 1.3405 132.4 22.5 .363  80
2019 10 11 06  04 15 54.305   +08 37 49.80  .44615 1.3407 132.5 22.5 .376  80
2019 10 11 07  04 15 55.185   +08 36 09.51  .44613 1.3408 132.5 22.5 .389  80
2019 10 11 08  04 15 56.057   +08 34 29.20  .44610 1.3409 132.5 22.5 .402  80
2019 10 11 09  04 15 56.923   +08 32 48.89  .44607 1.3410 132.6 22.5 .415  80
2019 10 11 10  04 15 57.782   +08 31 08.56  .44605 1.3411 132.6 22.5 .428  79
2019 10 11 11  04 15 58.633   +08 29 28.23  .44602 1.3412 132.6 22.5 .442  79
2019 10 11 12  04 15 59.478   +08 27 47.89  .44599 1.3414 132.7 22.5 .456  79
2019 10 11 13  04 16 00.317   +08 26 07.53  .44597 1.3415 132.7 22.5 .470  79
2019 10 11 14  04 16 01.148   +08 24 27.18  .44594 1.3416 132.7 22.5 .484  79
2019 10 11 15  04 16 01.972   +08 22 46.81  .44592 1.3417 132.8 22.5 .498  79
2019 10 11 16  04 16 02.790   +08 21 06.43  .44589 1.3418 132.8 22.5 .513  79
2019 10 11 17  04 16 03.600   +08 19 26.05  .44587 1.3419 132.8 22.5 .527  79
2019 10 11 18  04 16 04.404   +08 17 45.66  .44584 1.3421 132.9 22.5 .542  79
2019 10 11 19  04 16 05.201   +08 16 05.26  .44582 1.3422 132.9 22.5 .557  79
2019 10 11 20  04 16 05.990   +08 14 24.85  .44580 1.3423 133.0 22.5 .572  79
2019 10 11 21  04 16 06.774   +08 12 44.44  .44577 1.3424 133.0 22.5 .587  79
2019 10 11 22  04 16 07.550   +08 11 04.02  .44575 1.3425 133.0 22.5 .603  79
2019 10 11 23  04 16 08.319   +08 09 23.59  .44572 1.3426 133.1 22.5 .619  78
2019 10 12 00  04 16 09.082   +08 07 43.16  .44570 1.3428 133.1 22.5 .634  78
2019 10 12 01  04 16 09.837   +08 06 02.72  .44568 1.3429 133.1 22.5 .650  78
2019 10 12 02  04 16 10.586   +08 04 22.27  .44565 1.3430 133.2 22.5 .666  78
2019 10 12 03  04 16 11.328   +08 02 41.82  .44563 1.3431 133.2 22.5 .683  78
2019 10 12 04  04 16 12.063   +08 01 01.36  .44561 1.3432 133.2 22.5 .699  78
2019 10 12 05  04 16 12.791   +07 59 20.89  .44559 1.3433 133.3 22.5 .716  78
2019 10 12 06  04 16 13.512   +07 57 40.42  .44557 1.3435 133.3 22.5 .733  78
2019 10 12 07  04 16 14.227   +07 55 59.95  .44554 1.3436 133.3 22.5 .749  78
2019 10 12 08  04 16 14.934   +07 54 19.46  .44552 1.3437 133.4 22.5 .767  78
2019 10 12 09  04 16 15.635   +07 52 38.98  .44550 1.3438 133.4 22.5 .784  78
2019 10 12 10  04 16 16.329   +07 50 58.49  .44548 1.3439 133.4 22.5 .801  78